Vorticity
6 8 7 4 5 6 5 5 4 6 8 8 7 6 6 6 6 5 3 3 2 1 6 6 3 8 7 3 3 3 4 4 2 4 5 5 7 7 6 7 6 6 5 5 6 6 7 8 8 8 9 9 9 9 11 12 14 15 14 12 10 10 8 7 8 8 9 10 11 11 9 8 6 4 5 5 5 5 5 5 5 5 5 5 6 6
7 8 6 5 7 7 5 4 5 8 9 8 7 6 7 8 7 6 4 3 2 2 4 2 2 6 4 3 4 4 5 4 1 3 4 4 6 6 5 5 4 4 3 3 3 4 5 7 7 8 8 8 8 7 7 7 8 10 11 13 14 14 13 12 10 8 7 9 11 11 10 9 8 6 6 6 6 6 5 5 6 6 6 6 6 7
8 8 6 7 8 6 6 6 7 8 7 7 7 6 9 10 7 6 5 4 4 3 3 2 3 5 2 1 3 4 6 5 3 5 5 3 4 5 3 2 1 2 3 3 2 1 3 5 6 6 7 7 7 7 6 5 4 4 5 8 10 12 13 13 12 9 9 9 7 6 6 6 5 5 7 8 6 6 6 6 7 7 7 7 7 7
10 9 7 8 7 6 7 8 9 8 7 9 9 8 9 10 6 5 7 6 5 4 4 3 3 3 2 1 2 3 4 4 3 4 4 3 3 4 4 2 -0 -1 1 3 3 1 -1 1 3 3 4 4 4 4 5 5 3 2 1 2 5 8 9 10 11 11 13 14 10 7 7 5 4 7 10 10 10 10 10 10 11 12 12 11 11 11
11 8 7 7 6 7 8 10 9 7 7 8 9 9 9 8 7 6 7 6 6 6 5 5 5 4 3 3 3 3 3 3 3 3 3 1 1 1 1 -1 -1 1 3 3 4 2 -1 1 3 1 2 4 3 2 3 4 4 3 1 0 2 4 7 9 9 9 12 15 15 15 13 11 11 12 11 10 12 13 13 12 12 13 12 10 9 8
8 6 6 7 7 8 9 9 8 6 7 8 10 10 8 8 8 8 8 7 7 7 6 6 5 5 4 4 4 4 3 1 1 4 5 4 4 3 2 2 2 4 4 4 5 4 3 4 4 2 4 6 5 3 3 5 4 3 3 3 2 3 5 7 7 6 6 7 10 13 14 15 15 14 12 11 10 9 9 10 9 8 8 7 6 6
6 5 7 8 8 8 7 6 6 6 7 7 8 8 7 9 9 8 8 7 7 6 5 6 6 6 6 5 6 5 5 4 3 3 5 7 11 13 12 10 10 10 7 5 4 3 3 4 3 2 3 4 4 5 5 6 6 4 4 4 3 3 4 5 7 7 5 4 5 7 9 12 13 14 15 14 10 8 7 6 4 4 6 6 6 7
5 7 8 7 6 6 5 6 7 6 6 7 8 8 7 8 6 6 7 6 6 5 3 6 8 7 6 6 7 7 6 7 7 5 4 4 7 14 18 18 20 20 14 10 6 3 3 1 -0 -0 1 3 4 6 7 8 8 6 5 5 2 1 2 3 5 7 7 5 4 4 5 7 8 9 11 12 12 10 8 7 6 5 5 5 6 6
5 7 6 4 4 5 5 7 6 5 7 7 7 6 6 6 5 6 7 6 7 4 2 7 9 6 5 6 6 7 7 8 8 8 7 5 2 4 11 17 19 17 11 10 9 7 5 2 1 1 1 3 4 5 6 8 8 7 5 5 2 -1 -0 2 4 5 6 6 5 5 4 5 6 6 7 7 8 8 8 9 9 8 8 8 8 7
5 6 4 4 5 5 6 6 5 6 7 6 5 6 6 7 7 8 6 6 7 3 3 10 10 6 7 7 6 8 8 7 7 7 7 7 4 1 1 3 6 8 8 9 10 10 9 8 7 6 4 4 4 4 6 8 9 8 5 2 0 -2 -2 2 5 6 6 5 5 4 5 6 6 5 5 4 4 4 5 6 7 8 9 10 9 8
5 5 5 6 5 6 7 7 7 7 7 6 6 7 7 7 8 7 6 9 9 7 10 14 13 11 11 10 11 12 10 10 10 9 9 9 8 6 2 -1 -0 3 5 7 10 12 13 12 11 9 6 5 5 5 8 10 8 6 3 1 -0 -1 -1 2 5 5 6 6 4 3 3 6 7 5 5 4 3 3 3 4 7 8 9 9 9 8
4 5 6 6 6 8 9 7 8 8 8 9 9 10 11 11 12 12 12 13 11 11 14 15 13 12 11 11 14 14 14 15 14 13 14 13 12 11 9 7 6 4 2 2 5 9 14 18 19 18 15 11 10 9 7 7 5 1 -2 -4 -2 1 3 4 5 4 5 6 6 5 4 4 4 4 4 4 3 3 3 5 7 8 8 8 9 7
4 6 7 8 9 10 11 10 11 11 12 12 12 13 13 13 15 11 10 11 9 10 12 12 12 10 9 13 15 15 15 15 14 14 15 14 14 14 12 11 9 8 6 4 4 4 8 13 17 23 25 12 3 7 8 5 5 5 2 1 2 4 4 4 5 4 3 4 5 7 7 5 3 2 3 4 3 2 3 4 6 7 8 8 10 9
8 9 10 11 12 13 13 13 12 11 10 8 9 10 9 11 13 11 11 12 10 11 11 10 11 9 10 14 14 14 14 12 13 13 13 14 14 14 13 12 11 10 8 7 7 6 5 5 7 17 26 12 -3 7 17 12 10 10 9 10 10 9 10 9 7 5 4 3 4 6 8 8 6 3 2 2 3 3 2 2 3 6 8 8 9 9
12 11 11 11 11 10 8 7 8 9 9 8 9 10 9 11 11 9 11 11 11 12 8 8 11 10 12 13 11 10 10 11 13 13 13 14 13 13 13 13 13 12 12 11 10 10 10 9 8 10 19 19 10 15 24 22 20 19 16 16 16 16 16 14 10 8 6 5 4 5 6 8 8 7 5 3 2 2 2 1 1 2 5 6 6 8
8 7 8 7 7 8 8 9 10 11 11 11 11 10 9 10 8 8 9 8 12 12 7 9 11 9 10 10 8 9 10 11 12 13 13 13 13 14 14 14 14 14 14 13 11 11 9 9 8 6 8 11 6 3 7 9 9 13 14 14 12 9 7 7 8 9 8 7 7 7 7 7 7 8 8 6 3 2 2 3 2 0 0 1 1 5
4 3 6 8 8 10 11 12 11 9 9 10 11 9 10 10 10 10 9 9 11 9 6 9 9 7 9 8 7 10 10 10 10 10 11 11 11 12 11 11 12 11 12 12 11 11 10 8 8 7 6 6 4 3 5 4 3 7 12 10 3 -2 -0 5 8 10 11 11 9 8 8 7 6 7 8 9 7 4 3 3 3 2 2 0 -2 -1
7 6 9 12 12 12 11 10 8 7 8 10 10 10 11 11 11 11 11 11 11 7 7 9 7 7 9 8 9 11 11 11 11 10 9 9 9 9 9 10 10 11 11 12 12 12 12 12 11 10 10 10 9 9 9 8 8 10 13 14 13 13 13 10 7 7 10 13 13 11 9 8 7 7 8 9 9 7 5 4 3 3 3 2 1 -1
12 11 13 14 12 10 9 9 8 8 9 9 8 8 10 10 11 11 9 10 11 9 9 10 9 9 9 9 10 11 10 11 10 9 9 9 9 9 9 10 10 11 11 11 12 11 10 11 10 10 10 10 10 11 10 10 10 9 9 10 12 14 13 11 7 4 3 5 10 13 13 11 11 12 12 12 13 11 8 6 5 4 3 2 2 3
11 11 12 13 10 7 9 9 9 11 10 9 9 10 10 9 8 8 5 7 11 12 13 14 13 12 10 10 10 9 9 9 8 8 9 9 10 10 10 11 11 11 11 10 10 10 10 9 9 9 9 9 10 11 12 13 13 13 14 13 12 10 9 9 10 9 7 4 3 6 10 12 12 12 12 12 14 15 13 10 8 6 4 1 0 3
9 7 7 10 9 7 10 10 9 11 10 10 12 11 11 10 9 10 8 8 11 11 12 14 15 15 13 11 12 11 10 9 8 9 10 9 10 10 10 11 11 11 11 11 12 12 13 12 12 13 13 13 12 12 14 15 16 17 18 19 20 21 19 14 8 5 7 7 4 3 4 7 11 12 11 9 9 10 10 11 10 8 5 4 2 2
8 7 6 9 9 8 9 7 8 10 10 12 11 10 11 11 12 14 13 12 12 9 9 12 11 10 10 11 11 9 8 8 8 8 8 8 9 9 10 10 11 12 12 12 12 12 12 13 13 14 15 15 15 14 14 14 16 16 17 18 19 22 26 27 23 14 7 5 4 3 2 1 3 6 8 7 5 5 5 6 7 8 7 8 8 5
6 6 6 7 8 8 8 9 11 11 10 10 8 9 12 12 13 14 13 14 13 8 9 12 7 4 8 11 9 8 8 8 8 8 8 9 9 9 10 11 12 12 11 10 10 10 10 10 11 13 14 14 14 15 14 13 13 13 13 14 14 16 18 23 29 31 27 20 12 6 2 -0 -2 -2 -0 0 -1 -1 1 2 4 5 7 8 8 6
7 8 9 10 9 7 7 8 8 8 7 7 8 10 11 10 11 10 9 11 8 6 10 13 8 6 9 9 7 8 9 8 8 8 8 9 10 11 12 13 10 8 7 9 10 11 12 11 11 11 11 12 12 12 13 12 12 12 12 12 12 12 12 13 16 23 30 34 31 22 12 4 -1 -3 -2 0 1 1 1 2 4 5 6 7 6 5
10 10 11 13 13 12 13 12 11 12 12 10 10 10 8 7 10 8 7 7 4 3 9 9 6 7 9 10 10 9 8 7 8 9 10 12 14 13 11 7 5 5 7 10 11 12 11 10 9 9 9 10 10 10 11 12 13 13 13 13 13 12 12 12 12 12 16 22 30 34 31 24 15 6 0 -1 2 6 9 10 10 10 11 10 8 7
9 9 11 13 11 12 16 15 15 14 11 9 10 10 10 12 13 10 9 8 6 9 12 10 6 6 6 7 9 9 9 11 11 13 15 15 13 10 7 5 6 9 10 12 12 11 11 10 9 8 8 9 9 8 9 10 12 13 14 15 15 14 13 12 12 13 13 13 16 21 28 32 33 28 19 8 -0 -1 2 5 7 9 11 13 12 8
9 10 13 11 6 6 9 9 11 10 8 10 12 12 13 14 13 11 11 11 10 11 9 5 5 7 9 11 14 16 17 17 16 13 10 7 5 5 6 8 11 13 13 13 12 10 10 10 9 9 10 10 9 9 8 9 9 10 11 12 13 14 14 14 12 12 12 13 14 14 16 19 24 29 32 29 20 10 2 0 1 4 6 9 11 11
8 8 11 7 3 5 8 9 11 12 12 13 13 12 14 14 13 13 13 11 9 10 11 11 14 18 19 18 16 14 11 9 7 7 7 9 10 10 11 13 13 13 13 11 9 9 8 9 10 11 11 10 10 9 9 9 9 8 8 8 9 10 11 13 13 13 12 12 12 13 14 15 16 18 21 26 30 28 20 12 6 4 3 3 4 7
6 7 9 7 4 7 11 15 17 17 16 16 15 15 17 16 16 15 14 14 14 15 17 18 16 15 13 11 9 8 9 12 13 14 15 15 14 14 13 12 11 10 11 10 10 10 12 13 14 14 13 12 11 11 10 10 10 9 9 8 8 9 9 10 11 12 13 13 12 11 12 13 14 15 15 17 20 24 27 25 19 12 8 5 4 2
6 7 10 10 9 12 18 23 23 22 21 19 18 18 18 17 18 19 18 19 19 17 17 18 17 16 15 14 15 16 16 16 15 14 13 12 13 13 12 12 12 13 14 16 16 16 15 14 14 13 13 13 13 13 13 13 12 11 10 9 9 8 8 9 9 10 10 11 13 13 12 11 12 13 14 14 15 17 20 24 26 24 18 13 11 7
8 8 13 16 13 16 27 29 26 25 23 21 21 21 22 22 20 19 17 17 18 17 16 16 15 15 14 13 13 13 11 11 12 12 12 12 13 13 14 14 13 13 13 13 13 13 11 9 9 10 12 12 13 13 13 13 13 13 12 11 10 10 10 10 10 10 9 9 9 10 11 12 13 13 14 15 15 16 16 19 23 26 27 24 19 13
10 12 19 20 16 24 35 31 25 25 23 23 24 23 20 17 14 14 14 14 15 15 14 11 9 10 12 11 10 10 9 12 14 14 13 11 9 9 10 10 8 7 7 7 8 9 9 9 9 9 9 9 9 9 10 11 11 11 12 12 11 10 11 12 12 12 12 11 11 10 11 12 12 14 16 16 17 17 16 17 18 20 25 29 29 26
14 18 25 27 25 31 36 30 25 27 26 25 22 15 13 14 14 15 12 6 5 8 12 14 12 11 10 11 12 12 8 6 8 9 10 9 8 7 6 6 7 8 7 8 8 8 7 7 7 6 6 6 5 5 6 8 9 10 10 11 12 12 12 12 13 13 14 14 14 14 13 14 14 14 14 15 17 17 17 17 17 17 19 22 27 32
18 24 33 35 31 28 29 26 21 19 21 20 12 8 13 17 16 15 12 9 10 11 10 10 12 13 12 11 10 10 8 8 10 10 9 7 6 4 1 2 6 9 8 8 9 10 9 8 8 8 6 6 6 5 4 5 8 11 11 10 11 13 14 13 12 12 13 13 14 14 15 15 15 15 15 14 14 15 17 17 17 18 18 18 20 23
25 34 37 34 29 24 20 18 16 16 19 16 9 11 16 12 9 13 17 17 15 11 8 10 12 12 10 8 7 9 9 8 6 4 2 2 4 4 2 3 6 10 12 14 16 18 20 21 20 19 18 17 17 17 16 15 13 13 13 14 14 14 14 14 13 13 13 14 14 14 15 15 15 16 15 15 15 15 15 16 17 18 19 19 19 20
35 41 34 28 28 24 18 20 23 20 15 10 9 11 10 7 12 18 16 10 8 10 12 13 11 7 6 7 8 7 3 -0 -1 1 4 6 5 2 -0 1 4 9 13 18 22 24 27 29 30 31 33 33 33 32 31 29 27 22 17 16 16 16 15 14 13 13 14 15 16 16 17 16 16 15 15 15 16 15 15 16 17 18 20 20 21 21
43 38 27 25 27 22 18 22 21 11 8 10 11 9 8 12 18 13 5 4 10 13 10 7 5 5 4 2 -1 -1 -1 -0 1 3 4 3 -0 -2 -1 3 10 15 19 23 28 31 33 35 37 39 39 36 34 33 32 31 31 29 23 19 17 15 14 13 13 14 15 16 17 17 17 17 16 16 16 15 15 15 16 18 20 21 23 23 22 21
41 30 23 21 20 17 16 17 14 9 11 13 9 8 12 15 14 7 3 7 12 11 8 6 5 4 3 2 4 6 8 9 9 11 12 13 15 18 21 24 28 31 34 36 37 37 36 36 35 33 31 30 29 30 30 28 28 28 26 22 18 15 14 14 14 15 17 19 19 18 16 16 16 15 14 15 16 18 21 24 27 28 28 27 24 20
34 24 20 18 18 18 17 17 17 16 15 11 9 12 15 13 13 14 11 10 13 15 15 14 14 14 14 16 18 19 21 23 26 28 29 30 31 33 34 35 37 36 36 35 32 30 30 30 28 25 23 25 27 26 27 27 25 26 26 23 20 18 17 16 17 20 21 20 18 16 15 14 14 14 15 18 22 25 27 29 30 31 32 32 30 25
30 20 18 17 19 21 17 15 18 17 14 12 13 15 14 12 15 16 10 8 13 18 19 19 20 22 23 23 25 27 28 29 29 28 28 28 27 29 31 36 37 33 29 26 23 23 26 27 26 23 21 23 25 25 27 27 24 24 26 25 23 22 21 21 23 23 20 17 15 14 13 12 13 16 20 23 24 24 23 22 22 22 24 26 27 27
25 17 17 18 19 21 17 14 15 15 14 13 11 12 12 10 12 13 11 11 15 17 19 20 19 21 24 26 29 30 29 29 29 30 29 27 24 27 28 27 27 27 26 24 21 20 23 25 24 22 20 20 21 22 25 26 25 26 27 26 24 23 23 24 23 20 16 14 12 11 12 15 20 24 26 27 26 24 22 20 18 17 16 17 19 20
20 16 17 18 18 19 17 14 12 12 12 10 8 10 12 10 10 13 14 13 15 15 15 16 19 25 29 29 29 29 30 34 37 33 26 21 20 23 23 17 17 22 24 25 24 22 23 24 23 22 21 20 20 21 23 25 26 26 26 24 23 22 21 20 18 15 12 11 11 15 21 25 28 29 28 28 27 26 26 25 25 25 24 24 24 24
17 16 17 18 18 16 15 14 11 8 8 8 7 7 9 10 12 13 12 12 16 17 16 16 22 29 32 28 25 26 29 33 33 27 22 21 21 23 22 19 20 23 23 23 25 24 24 24 23 22 23 23 23 23 23 25 25 24 22 21 19 19 19 16 13 10 10 14 20 24 26 25 24 23 22 22 22 22 23 25 27 29 30 31 32 32
16 17 16 20 21 16 13 13 10 8 10 11 10 9 9 11 14 14 12 13 16 17 16 16 20 27 31 29 24 22 22 24 26 23 23 25 26 25 24 22 21 22 23 24 25 24 23 24 24 24 25 25 25 24 23 22 21 20 18 17 17 17 14 11 9 12 17 22 24 21 19 17 17 16 15 15 16 16 17 18 19 19 20 21 22 22
17 18 16 19 22 23 23 15 6 8 13 11 10 10 10 13 16 16 14 14 16 16 15 13 14 20 27 30 27 23 20 19 19 19 19 22 23 23 21 19 19 22 24 25 24 24 24 24 24 25 24 22 21 21 19 17 17 17 17 16 16 13 10 10 14 19 21 19 15 13 13 14 13 13 13 14 15 15 14 13 12 12 12 12 13 13
16 16 16 17 18 23 28 21 10 12 16 11 10 11 11 13 15 15 14 14 14 15 16 15 13 14 19 24 24 24 26 25 23 23 23 22 23 23 23 23 25 27 27 26 25 24 24 23 23 22 21 19 17 16 16 16 16 16 17 15 12 10 11 16 19 18 14 10 10 12 14 14 12 12 13 14 16 17 17 15 13 11 11 10 11 12
16 15 15 18 19 19 20 19 16 18 17 11 9 11 11 12 16 16 15 14 14 15 16 17 15 14 17 20 18 18 24 27 26 27 30 31 30 30 29 29 29 28 25 23 23 21 21 21 20 19 18 18 17 16 16 15 15 15 14 11 10 13 17 18 14 10 8 10 13 14 15 14 13 13 13 15 17 17 17 17 14 13 12 11 11 11
16 15 12 15 21 22 17 15 16 20 20 15 10 11 10 10 14 17 15 12 13 14 15 17 17 15 17 20 18 15 21 25 23 23 27 28 26 26 26 25 24 23 20 19 19 19 18 19 18 18 18 19 18 17 16 15 15 14 11 11 14 17 16 11 9 9 11 13 14 14 14 13 13 13 13 15 16 17 18 18 17 15 14 13 12 11
15 15 11 11 18 22 19 15 14 17 21 19 14 14 13 10 12 16 14 10 12 14 14 16 18 16 15 16 15 14 19 22 20 18 19 20 20 21 22 21 20 19 18 18 17 17 17 17 17 17 18 18 17 16 14 14 14 12 11 15 18 16 10 8 10 12 12 13 13 13 13 13 13 13 12 11 12 15 17 18 19 18 17 16 14 13
16 15 14 11 13 16 17 17 14 11 14 16 14 15 14 10 11 14 13 10 12 13 12 12 14 16 17 15 12 11 15 18 18 17 18 17 16 17 17 17 17 17 16 16 16 16 15 16 17 16 16 16 16 15 14 14 13 11 13 17 15 10 7 8 9 11 12 13 13 12 12 12 13 12 11 11 10 11 12 13 15 16 17 17 16 15
17 15 14 13 15 15 15 17 16 13 13 15 15 15 15 11 10 12 12 11 12 13 13 11 11 13 15 15 13 11 12 15 16 16 16 16 14 14 14 14 15 16 16 16 17 16 16 15 15 14 14 15 15 15 14 14 12 11 13 15 11 8 8 9 9 9 10 11 10 9 9 9 10 10 11 12 11 11 10 10 10 11 12 13 14 14
Height
5747 5746 5743 5739 5737 5736 5734 5732 5731 5729 5727 5725 5723 5721 5719 5718 5718 5715 5711 5709 5707 5704 5705 5703 5701 5703 5701 5696 5694 5692 5689 5687 5686 5684 5683 5682 5681 5679 5678 5677 5675 5674 5672 5671 5670 5669 5667 5666 5665 5664 5663 5662 5662 5661 5660 5660 5659 5658 5658 5657 5656 5656 5655 5654 5653 5652 5652 5652 5652 5652 5652 5652 5652 5652 5652 5652 5652 5652 5652 5652 5652 5653 5653 5653 5654 5654
5744 5742 5739 5736 5734 5732 5730 5728 5727 5725 5723 5720 5719 5716 5715 5714 5713 5711 5707 5705 5703 5700 5700 5699 5697 5697 5695 5693 5691 5689 5686 5684 5682 5680 5678 5678 5677 5676 5674 5673 5671 5670 5668 5667 5666 5665 5663 5662 5661 5660 5659 5658 5657 5656 5655 5655 5654 5653 5652 5652 5652 5651 5650 5649 5648 5647 5647 5647 5646 5646 5646 5646 5646 5646 5646 5646 5646 5646 5645 5646 5646 5647 5647 5647 5648 5648
5741 5739 5735 5732 5731 5728 5727 5725 5722 5721 5718 5716 5714 5712 5711 5710 5707 5705 5703 5701 5699 5696 5695 5694 5692 5691 5689 5688 5687 5684 5683 5681 5679 5677 5674 5673 5672 5671 5670 5668 5667 5666 5664 5663 5661 5660 5659 5658 5656 5655 5654 5653 5652 5652 5651 5650 5649 5648 5647 5647 5646 5646 5645 5644 5643 5642 5642 5642 5640 5640 5640 5639 5638 5639 5640 5639 5639 5639 5640 5640 5641 5641 5641 5642 5642 5643
5737 5735 5732 5729 5727 5725 5723 5721 5718 5716 5714 5712 5710 5707 5706 5704 5701 5699 5698 5696 5693 5691 5690 5688 5686 5685 5684 5683 5681 5679 5677 5676 5675 5673 5670 5668 5666 5665 5665 5663 5662 5661 5659 5657 5656 5655 5654 5652 5651 5650 5649 5648 5647 5646 5645 5645 5644 5643 5642 5641 5641 5640 5639 5639 5638 5637 5637 5636 5635 5634 5633 5632 5633 5634 5634 5633 5633 5634 5634 5634 5635 5636 5636 5636 5636 5637
5734 5731 5728 5726 5724 5721 5719 5716 5714 5711 5709 5708 5705 5703 5701 5698 5695 5693 5691 5689 5688 5686 5685 5682 5679 5677 5678 5678 5676 5673 5671 5670 5669 5667 5665 5663 5661 5660 5659 5658 5656 5655 5653 5651 5650 5649 5648 5646 5645 5644 5643 5641 5641 5640 5639 5638 5638 5637 5636 5636 5635 5634 5633 5633 5632 5632 5631 5630 5630 5629 5628 5627 5628 5628 5628 5628 5628 5628 5628 5628 5629 5629 5629 5629 5629 5629
5730 5726 5724 5722 5720 5717 5714 5712 5709 5706 5704 5703 5701 5698 5695 5693 5690 5687 5685 5683 5682 5680 5679 5677 5671 5668 5670 5671 5670 5668 5664 5662 5660 5658 5658 5657 5656 5654 5652 5651 5650 5648 5647 5645 5643 5642 5641 5640 5638 5637 5636 5635 5634 5633 5632 5631 5631 5631 5630 5629 5628 5628 5627 5626 5625 5625 5624 5624 5624 5623 5623 5622 5622 5622 5623 5623 5622 5621 5621 5622 5622 5621 5620 5621 5621 5621
5726 5723 5721 5718 5715 5712 5710 5707 5704 5701 5699 5697 5696 5693 5689 5687 5684 5682 5679 5676 5675 5674 5673 5671 5664 5660 5662 5662 5663 5662 5658 5655 5652 5650 5649 5648 5647 5647 5645 5644 5642 5641 5640 5638 5636 5634 5633 5632 5631 5630 5629 5628 5627 5626 5625 5624 5623 5623 5623 5622 5621 5621 5620 5619 5618 5618 5618 5617 5617 5617 5617 5617 5616 5616 5617 5616 5615 5615 5615 5615 5614 5613 5614 5614 5615 5615
5722 5719 5716 5713 5711 5708 5705 5702 5699 5696 5694 5692 5690 5687 5684 5681 5678 5676 5673 5670 5668 5667 5667 5666 5660 5653 5653 5655 5656 5654 5650 5648 5646 5644 5642 5640 5638 5637 5637 5636 5634 5633 5631 5630 5628 5627 5625 5624 5623 5623 5621 5620 5619 5618 5617 5616 5616 5615 5615 5615 5614 5613 5613 5612 5611 5611 5611 5611 5610 5610 5610 5610 5610 5610 5610 5609 5609 5608 5607 5607 5607 5607 5608 5608 5608 5608
5717 5715 5712 5708 5706 5703 5700 5697 5694 5691 5688 5686 5683 5680 5677 5675 5672 5670 5666 5664 5662 5659 5659 5660 5656 5647 5643 5648 5649 5646 5643 5641 5639 5637 5635 5633 5630 5627 5626 5626 5626 5624 5623 5622 5621 5619 5618 5616 5614 5614 5613 5612 5611 5610 5609 5608 5608 5607 5607 5606 5606 5606 5605 5604 5604 5604 5604 5603 5603 5603 5603 5603 5603 5603 5603 5602 5602 5601 5600 5601 5601 5601 5602 5602 5602 5602
5712 5710 5707 5704 5701 5698 5695 5692 5689 5686 5682 5679 5676 5673 5671 5668 5665 5663 5659 5657 5654 5651 5652 5653 5650 5641 5635 5639 5642 5639 5636 5633 5631 5629 5628 5626 5624 5621 5617 5616 5615 5615 5613 5613 5612 5611 5610 5608 5606 5605 5604 5603 5602 5602 5602 5600 5600 5598 5598 5598 5597 5597 5597 5596 5596 5596 5596 5595 5595 5595 5595 5596 5596 5595 5595 5594 5595 5595 5594 5594 5594 5594 5595 5595 5595 5595
5708 5705 5702 5699 5696 5693 5690 5686 5683 5680 5676 5673 5670 5667 5663 5660 5658 5655 5653 5650 5645 5643 5646 5646 5641 5635 5629 5630 5633 5631 5628 5625 5623 5621 5619 5617 5616 5613 5610 5607 5605 5603 5602 5601 5601 5600 5600 5599 5598 5597 5595 5594 5593 5593 5593 5592 5591 5590 5589 5589 5588 5588 5588 5587 5587 5587 5587 5586 5586 5586 5586 5587 5587 5587 5587 5587 5587 5587 5587 5588 5587 5587 5587 5587 5587 5587
5704 5701 5697 5694 5691 5688 5684 5681 5677 5674 5670 5667 5663 5660 5656 5653 5650 5647 5645 5643 5638 5636 5638 5637 5632 5627 5622 5622 5625 5623 5619 5617 5614 5612 5609 5607 5606 5604 5601 5598 5595 5593 5591 5590 5588 5588 5588 5588 5588 5587 5586 5585 5584 5583 5583 5582 5582 5581 5580 5579 5578 5578 5578 5578 5578 5577 5577 5577 5577 5577 5577 5578 5578 5578 5579 5579 5579 5579 5579 5580 5580 5579 5579 5579 5580 5579
5700 5697 5693 5689 5686 5683 5678 5674 5671 5667 5664 5660 5657 5653 5648 5644 5641 5638 5637 5634 5630 5629 5628 5627 5623 5618 5615 5614 5614 5612 5610 5608 5605 5602 5600 5598 5596 5594 5591 5589 5586 5584 5581 5579 5578 5576 5576 5576 5576 5576 5575 5575 5574 5573 5573 5572 5571 5571 5570 5570 5569 5568 5568 5567 5567 5567 5567 5567 5567 5567 5568 5568 5568 5569 5569 5569 5570 5570 5571 5572 5572 5571 5572 5572 5573 5572
5695 5691 5687 5683 5679 5676 5671 5667 5663 5660 5657 5653 5650 5646 5641 5637 5631 5628 5628 5624 5622 5621 5619 5617 5612 5608 5607 5605 5604 5602 5599 5597 5594 5592 5590 5588 5586 5584 5581 5579 5576 5574 5572 5569 5568 5566 5565 5564 5564 5564 5565 5565 5564 5563 5563 5562 5561 5560 5559 5559 5558 5558 5557 5557 5557 5557 5556 5556 5557 5557 5557 5558 5558 5559 5559 5559 5560 5560 5561 5562 5563 5563 5564 5565 5565 5565
5689 5686 5682 5677 5673 5670 5665 5661 5656 5652 5650 5646 5644 5639 5635 5631 5624 5618 5618 5615 5612 5611 5611 5609 5603 5599 5598 5596 5594 5592 5589 5587 5584 5582 5579 5577 5575 5573 5571 5569 5566 5564 5562 5560 5557 5556 5554 5553 5552 5552 5553 5553 5553 5553 5552 5551 5551 5550 5549 5548 5548 5547 5547 5547 5546 5546 5546 5545 5546 5546 5546 5547 5547 5548 5549 5549 5549 5550 5551 5552 5553 5554 5555 5556 5556 5557
5685 5683 5679 5673 5669 5665 5660 5656 5651 5646 5642 5639 5637 5633 5628 5625 5619 5612 5609 5607 5603 5599 5600 5601 5596 5591 5589 5585 5585 5583 5578 5577 5574 5571 5569 5566 5564 5562 5559 5558 5556 5554 5552 5550 5548 5545 5543 5542 5541 5541 5541 5541 5541 5541 5541 5541 5540 5540 5538 5537 5537 5537 5536 5536 5536 5536 5535 5535 5535 5535 5535 5536 5536 5537 5538 5538 5539 5539 5540 5541 5542 5543 5544 5545 5546 5547
5677 5678 5676 5669 5663 5660 5655 5651 5647 5641 5636 5632 5629 5625 5621 5617 5613 5606 5601 5600 5596 5588 5589 5592 5588 5582 5579 5575 5574 5572 5568 5567 5564 5560 5559 5556 5553 5551 5548 5547 5545 5543 5542 5540 5538 5536 5534 5532 5531 5530 5529 5528 5528 5527 5528 5528 5528 5528 5528 5527 5527 5526 5526 5525 5525 5525 5525 5525 5524 5524 5524 5524 5525 5526 5526 5527 5527 5528 5529 5530 5531 5533 5533 5534 5535 5536
5667 5669 5672 5666 5658 5655 5650 5645 5641 5636 5631 5626 5622 5618 5613 5608 5604 5598 5592 5591 5588 5580 5578 5582 5579 5574 5569 5564 5564 5562 5557 5555 5553 5550 5548 5545 5543 5540 5538 5536 5534 5533 5531 5529 5528 5526 5524 5522 5521 5520 5518 5517 5516 5515 5515 5515 5515 5515 5516 5516 5516 5516 5516 5515 5514 5514 5514 5514 5514 5514 5514 5514 5514 5514 5515 5516 5516 5517 5518 5518 5520 5521 5522 5523 5524 5524
5660 5657 5663 5663 5653 5648 5645 5639 5634 5631 5626 5621 5615 5611 5606 5600 5596 5591 5584 5581 5579 5572 5568 5570 5570 5566 5560 5556 5555 5551 5547 5545 5542 5540 5537 5534 5532 5529 5527 5526 5524 5522 5520 5518 5517 5515 5513 5512 5510 5509 5507 5505 5504 5503 5503 5502 5502 5502 5502 5503 5504 5505 5505 5505 5504 5504 5503 5503 5503 5503 5503 5503 5503 5503 5504 5504 5505 5505 5506 5507 5508 5509 5510 5511 5512 5513
5655 5647 5650 5655 5649 5642 5638 5633 5627 5623 5619 5614 5609 5605 5601 5594 5589 5584 5578 5574 5569 5563 5559 5557 5559 5557 5550 5547 5545 5541 5538 5535 5532 5529 5527 5524 5522 5519 5517 5516 5514 5512 5510 5508 5506 5504 5502 5500 5498 5497 5495 5493 5492 5491 5491 5490 5490 5489 5489 5490 5491 5491 5492 5493 5493 5493 5492 5492 5491 5491 5491 5491 5492 5492 5492 5493 5494 5494 5495 5495 5496 5497 5498 5499 5500 5501
5651 5643 5640 5644 5643 5637 5632 5626 5621 5617 5611 5607 5601 5597 5593 5587 5582 5575 5571 5568 5562 5555 5550 5546 5545 5546 5542 5538 5535 5531 5528 5526 5522 5520 5517 5515 5513 5510 5508 5506 5504 5502 5499 5497 5495 5493 5492 5489 5487 5485 5483 5482 5481 5479 5479 5478 5478 5478 5477 5476 5477 5477 5478 5479 5479 5480 5480 5480 5480 5480 5480 5479 5480 5480 5481 5481 5482 5483 5484 5484 5485 5486 5487 5488 5489 5490
5645 5639 5634 5634 5634 5632 5626 5620 5615 5610 5604 5600 5595 5589 5585 5580 5574 5566 5561 5559 5556 5549 5544 5538 5533 5532 5532 5530 5526 5522 5519 5516 5514 5511 5509 5506 5503 5501 5498 5495 5493 5491 5488 5486 5484 5482 5481 5479 5477 5475 5473 5471 5470 5468 5467 5466 5466 5466 5465 5465 5465 5464 5464 5464 5465 5466 5467 5467 5468 5468 5468 5468 5468 5469 5469 5470 5470 5471 5472 5473 5474 5475 5476 5477 5478 5479
5639 5633 5628 5626 5625 5624 5619 5613 5608 5603 5597 5593 5588 5583 5577 5571 5566 5559 5551 5548 5546 5542 5538 5532 5524 5520 5520 5519 5516 5513 5510 5507 5504 5502 5498 5496 5493 5490 5487 5484 5482 5480 5477 5474 5473 5471 5469 5468 5466 5464 5462 5461 5459 5458 5456 5455 5454 5453 5453 5453 5453 5453 5452 5451 5451 5452 5453 5454 5454 5454 5455 5455 5456 5456 5457 5458 5458 5459 5460 5461 5462 5463 5465 5466 5467 5468
5633 5627 5620 5616 5616 5616 5613 5606 5600 5595 5590 5585 5579 5575 5569 5563 5558 5551 5545 5539 5534 5534 5532 5524 5515 5511 5508 5507 5506 5503 5500 5497 5494 5491 5488 5484 5482 5479 5475 5473 5470 5468 5465 5463 5460 5458 5456 5455 5454 5452 5451 5449 5448 5447 5446 5444 5443 5441 5441 5441 5441 5441 5441 5440 5440 5439 5440 5441 5441 5441 5441 5442 5443 5444 5444 5445 5446 5447 5448 5449 5450 5451 5453 5454 5456 5457
5627 5621 5613 5605 5601 5601 5602 5597 5589 5583 5579 5575 5570 5566 5561 5555 5549 5543 5538 5532 5524 5523 5524 5516 5508 5503 5498 5494 5494 5493 5490 5487 5483 5480 5477 5474 5471 5468 5464 5461 5459 5456 5454 5451 5449 5447 5444 5442 5441 5440 5438 5437 5436 5435 5434 5433 5432 5430 5429 5428 5428 5429 5429 5429 5429 5428 5428 5428 5428 5429 5429 5429 5430 5431 5431 5432 5433 5434 5435 5436 5438 5439 5440 5442 5443 5444
5622 5617 5610 5601 5593 5588 5586 5584 5579 5572 5567 5564 5561 5556 5551 5546 5541 5534 5528 5522 5515 5511 5512 5506 5498 5495 5489 5483 5482 5482 5479 5476 5473 5470 5467 5463 5460 5457 5453 5450 5447 5445 5442 5440 5438 5436 5433 5431 5429 5427 5425 5424 5424 5424 5423 5422 5421 5419 5418 5417 5416 5416 5416 5416 5417 5417 5417 5416 5416 5416 5416 5417 5417 5418 5419 5419 5420 5421 5422 5423 5425 5426 5428 5429 5430 5432
5614 5611 5606 5598 5590 5585 5579 5575 5570 5563 5556 5552 5548 5543 5539 5534 5530 5525 5518 5512 5506 5501 5499 5495 5488 5485 5481 5473 5470 5470 5467 5464 5462 5459 5457 5454 5450 5447 5443 5440 5437 5434 5432 5430 5428 5425 5423 5420 5417 5415 5413 5412 5412 5412 5411 5410 5409 5408 5407 5406 5405 5404 5404 5403 5403 5404 5404 5404 5404 5404 5404 5404 5405 5405 5406 5406 5407 5408 5408 5409 5411 5412 5414 5416 5418 5420
5604 5602 5598 5591 5585 5581 5574 5566 5561 5553 5545 5539 5534 5530 5527 5522 5518 5514 5508 5502 5498 5492 5488 5485 5480 5475 5470 5465 5461 5459 5455 5452 5450 5448 5446 5444 5440 5436 5433 5430 5427 5424 5422 5420 5418 5416 5413 5410 5407 5405 5403 5401 5400 5399 5398 5398 5397 5397 5396 5396 5394 5393 5392 5391 5391 5391 5391 5392 5392 5392 5392 5392 5392 5393 5393 5394 5394 5394 5395 5395 5396 5398 5400 5402 5404 5406
5594 5591 5589 5582 5577 5574 5567 5557 5550 5543 5535 5528 5522 5518 5515 5510 5506 5503 5498 5492 5488 5483 5477 5474 5471 5466 5460 5455 5453 5448 5443 5441 5440 5438 5436 5433 5429 5425 5422 5419 5416 5412 5409 5408 5407 5405 5402 5400 5397 5395 5392 5390 5388 5387 5386 5385 5384 5384 5384 5384 5383 5382 5381 5380 5379 5379 5378 5378 5379 5380 5381 5381 5380 5380 5381 5381 5381 5382 5382 5382 5383 5384 5385 5386 5388 5391
5586 5582 5578 5569 5564 5563 5557 5547 5539 5532 5524 5517 5512 5507 5503 5499 5495 5491 5487 5482 5478 5474 5468 5463 5461 5458 5450 5444 5442 5438 5432 5429 5428 5427 5426 5422 5418 5413 5410 5407 5404 5401 5397 5395 5393 5391 5389 5387 5386 5384 5381 5379 5377 5375 5374 5373 5372 5371 5371 5371 5371 5370 5370 5369 5368 5367 5366 5366 5366 5367 5368 5369 5369 5369 5368 5368 5368 5369 5369 5369 5370 5370 5371 5372 5373 5375
5578 5571 5566 5556 5548 5547 5543 5535 5527 5520 5513 5506 5500 5496 5492 5487 5484 5481 5477 5472 5467 5463 5459 5455 5451 5447 5441 5435 5432 5428 5423 5418 5416 5416 5415 5411 5407 5401 5397 5395 5392 5389 5386 5383 5380 5378 5376 5374 5372 5371 5369 5367 5365 5364 5362 5362 5361 5360 5359 5359 5358 5358 5357 5357 5356 5355 5354 5354 5354 5354 5355 5356 5357 5357 5357 5356 5356 5355 5355 5356 5356 5357 5357 5358 5359 5360
5569 5559 5552 5542 5533 5531 5527 5520 5514 5509 5502 5496 5490 5486 5483 5478 5475 5471 5468 5463 5457 5452 5448 5445 5440 5435 5429 5425 5421 5418 5413 5408 5404 5403 5402 5400 5396 5390 5385 5382 5380 5376 5373 5370 5367 5364 5362 5360 5358 5357 5356 5355 5353 5352 5350 5349 5349 5348 5347 5346 5347 5346 5345 5344 5344 5343 5342 5342 5342 5342 5343 5343 5344 5345 5345 5344 5343 5343 5342 5342 5342 5343 5343 5344 5345 5345
5560 5548 5540 5530 5520 5516 5514 5507 5501 5496 5492 5486 5480 5476 5473 5470 5465 5462 5459 5456 5450 5442 5437 5433 5428 5423 5418 5414 5409 5406 5403 5398 5393 5391 5389 5386 5383 5378 5373 5369 5366 5363 5360 5356 5353 5350 5348 5345 5343 5342 5342 5341 5340 5339 5338 5336 5335 5335 5335 5335 5335 5335 5333 5333 5332 5330 5330 5330 5330 5330 5330 5330 5331 5332 5332 5332 5331 5331 5330 5329 5329 5329 5329 5330 5331 5331
5550 5538 5529 5520 5510 5504 5502 5497 5490 5487 5483 5477 5471 5467 5464 5459 5454 5450 5449 5446 5441 5435 5429 5423 5417 5413 5409 5404 5399 5394 5391 5387 5382 5380 5379 5375 5369 5364 5361 5356 5352 5349 5346 5342 5339 5336 5333 5331 5329 5328 5327 5327 5327 5326 5325 5323 5322 5321 5321 5322 5323 5323 5321 5321 5320 5318 5318 5318 5318 5318 5318 5318 5318 5318 5319 5319 5318 5318 5318 5317 5316 5315 5315 5315 5316 5317
5539 5529 5520 5513 5504 5497 5493 5488 5483 5479 5475 5470 5464 5460 5457 5452 5446 5441 5439 5439 5433 5426 5421 5415 5409 5405 5400 5396 5390 5385 5380 5376 5370 5368 5367 5363 5357 5351 5348 5344 5339 5335 5332 5328 5325 5321 5318 5316 5314 5314 5313 5313 5313 5312 5312 5311 5309 5308 5309 5309 5309 5310 5309 5308 5308 5307 5306 5307 5307 5307 5306 5306 5306 5306 5306 5306 5306 5305 5305 5304 5303 5303 5302 5302 5303 5303
5529 5520 5512 5505 5499 5492 5487 5483 5478 5473 5468 5463 5457 5453 5450 5446 5440 5433 5430 5431 5428 5420 5413 5407 5402 5397 5392 5387 5382 5377 5371 5366 5361 5357 5355 5350 5344 5339 5335 5330 5326 5323 5318 5315 5311 5307 5303 5300 5299 5298 5298 5297 5298 5297 5297 5297 5296 5296 5297 5297 5297 5297 5296 5296 5296 5296 5295 5296 5296 5295 5295 5294 5294 5294 5294 5293 5293 5293 5292 5291 5291 5290 5289 5290 5290 5290
5522 5514 5506 5499 5493 5488 5481 5478 5475 5469 5462 5456 5451 5447 5441 5437 5432 5425 5419 5418 5419 5414 5406 5399 5393 5388 5384 5378 5373 5368 5361 5354 5349 5348 5345 5338 5331 5326 5322 5317 5312 5309 5304 5300 5297 5293 5289 5286 5285 5284 5283 5282 5282 5282 5282 5282 5283 5283 5285 5286 5286 5285 5285 5285 5285 5285 5285 5285 5285 5284 5283 5283 5283 5283 5282 5281 5281 5280 5279 5278 5278 5277 5276 5277 5277 5277
5515 5508 5501 5494 5488 5483 5476 5471 5467 5462 5455 5450 5445 5441 5436 5431 5428 5422 5413 5409 5408 5405 5399 5393 5386 5380 5374 5368 5362 5356 5348 5339 5335 5335 5331 5324 5317 5312 5307 5302 5299 5295 5290 5286 5283 5279 5276 5274 5273 5271 5270 5269 5269 5269 5269 5269 5270 5271 5273 5275 5275 5275 5275 5275 5275 5275 5275 5274 5273 5273 5273 5273 5272 5272 5271 5270 5269 5268 5266 5265 5264 5264 5263 5264 5265 5266
5510 5503 5497 5490 5483 5477 5470 5464 5459 5454 5449 5444 5440 5436 5432 5427 5423 5417 5409 5404 5402 5398 5392 5386 5378 5371 5364 5356 5349 5343 5334 5324 5319 5318 5315 5309 5304 5299 5294 5290 5286 5282 5278 5274 5270 5266 5264 5264 5263 5261 5259 5258 5258 5258 5258 5258 5258 5259 5262 5263 5264 5265 5266 5266 5265 5266 5266 5264 5263 5263 5263 5263 5262 5262 5261 5259 5258 5256 5255 5254 5253 5252 5252 5252 5253 5254
5503 5496 5490 5484 5477 5471 5465 5460 5455 5450 5445 5441 5436 5431 5426 5422 5418 5410 5402 5396 5394 5391 5384 5375 5367 5359 5351 5343 5337 5331 5322 5312 5305 5303 5301 5295 5291 5287 5283 5280 5276 5271 5268 5264 5260 5257 5255 5255 5254 5253 5251 5250 5249 5248 5248 5248 5248 5250 5251 5253 5255 5255 5256 5257 5258 5258 5256 5255 5254 5254 5254 5254 5253 5252 5250 5249 5248 5246 5245 5244 5243 5242 5242 5242 5243 5244
5495 5488 5482 5477 5472 5466 5461 5456 5451 5446 5441 5436 5431 5426 5420 5415 5411 5404 5395 5387 5382 5378 5373 5364 5355 5347 5339 5331 5325 5320 5314 5306 5298 5293 5290 5286 5281 5278 5275 5271 5267 5263 5259 5256 5252 5249 5247 5246 5246 5245 5243 5242 5240 5240 5239 5239 5240 5241 5243 5244 5246 5246 5248 5249 5250 5249 5248 5247 5247 5246 5245 5244 5243 5242 5241 5240 5239 5238 5236 5235 5234 5234 5234 5233 5234 5234
5488 5481 5476 5470 5466 5461 5456 5450 5445 5442 5437 5431 5426 5421 5415 5407 5401 5395 5389 5382 5374 5368 5362 5356 5348 5339 5331 5323 5317 5311 5305 5299 5292 5287 5282 5278 5273 5270 5268 5264 5259 5255 5252 5249 5246 5243 5240 5239 5239 5238 5237 5235 5233 5232 5231 5232 5233 5234 5236 5237 5238 5239 5241 5242 5242 5242 5241 5241 5240 5239 5238 5236 5235 5234 5233 5232 5231 5230 5228 5227 5227 5226 5226 5226 5226 5226
5482 5476 5471 5465 5459 5454 5450 5445 5438 5433 5430 5424 5418 5414 5409 5401 5393 5386 5380 5375 5370 5362 5354 5348 5341 5332 5323 5316 5310 5303 5296 5291 5286 5280 5275 5271 5267 5264 5260 5257 5252 5248 5244 5241 5239 5237 5235 5233 5232 5231 5230 5229 5228 5226 5226 5226 5228 5229 5230 5231 5232 5233 5235 5235 5235 5235 5235 5234 5233 5232 5230 5230 5228 5228 5227 5226 5225 5224 5222 5221 5220 5220 5219 5219 5219 5219
5480 5473 5467 5460 5454 5448 5443 5440 5435 5429 5425 5420 5413 5407 5402 5396 5389 5381 5374 5368 5364 5357 5349 5341 5334 5326 5317 5309 5302 5296 5290 5284 5279 5274 5269 5265 5261 5257 5254 5250 5246 5242 5238 5235 5232 5231 5229 5228 5227 5226 5225 5224 5223 5222 5222 5222 5223 5224 5225 5226 5226 5227 5228 5228 5228 5228 5228 5227 5226 5225 5224 5224 5223 5222 5221 5220 5219 5218 5217 5216 5216 5215 5214 5214 5214 5214
5478 5471 5465 5459 5452 5446 5440 5435 5430 5427 5423 5418 5411 5403 5398 5393 5386 5379 5371 5364 5358 5351 5343 5335 5327 5321 5312 5304 5296 5290 5284 5278 5273 5269 5264 5259 5255 5252 5248 5244 5240 5236 5233 5230 5228 5226 5225 5223 5222 5222 5221 5220 5219 5219 5219 5219 5219 5220 5221 5221 5222 5222 5222 5222 5222 5222 5221 5221 5220 5220 5219 5218 5217 5216 5216 5215 5214 5213 5212 5212 5211 5211 5210 5210 5209 5209
5473 5467 5462 5457 5452 5448 5443 5436 5429 5425 5420 5415 5408 5402 5395 5389 5383 5376 5369 5362 5354 5347 5340 5331 5323 5316 5309 5300 5292 5286 5280 5274 5269 5264 5260 5255 5251 5247 5243 5240 5236 5233 5230 5227 5225 5223 5221 5220 5219 5218 5218 5217 5216 5216 5216 5216 5216 5217 5217 5217 5217 5217 5217 5217 5217 5216 5216 5216 5215 5215 5214 5213 5212 5211 5211 5210 5210 5209 5208 5208 5207 5207 5206 5206 5205 5205
5474 5466 5460 5454 5448 5444 5440 5435 5427 5422 5416 5408 5403 5398 5392 5385 5380 5373 5365 5358 5350 5343 5336 5328 5320 5313 5306 5299 5291 5284 5278 5272 5266 5260 5256 5252 5248 5244 5240 5236 5233 5230 5227 5225 5223 5221 5219 5218 5217 5216 5215 5215 5214 5213 5213 5213 5213 5213 5213 5213 5213 5213 5213 5213 5213 5212 5212 5212 5211 5211 5210 5209 5208 5207 5207 5206 5205 5205 5204 5203 5203 5202 5202 5201 5201 5200
5472 5465 5458 5453 5447 5439 5434 5428 5423 5418 5413 5404 5396 5390 5385 5379 5373 5367 5360 5352 5345 5338 5331 5324 5317 5310 5303 5296 5289 5282 5276 5271 5264 5258 5254 5250 5245 5242 5238 5235 5232 5229 5226 5223 5221 5219 5217 5216 5215 5214 5213 5213 5212 5212 5211 5210 5210 5210 5210 5210 5210 5209 5209 5209 5209 5209 5208 5208 5208 5207 5206 5205 5205 5204 5203 5202 5201 5200 5200 5199 5198 5198 5197 5197 5196 5196
5467 5461 5455 5450 5445 5438 5430 5423 5416 5413 5410 5404 5395 5388 5381 5374 5369 5363 5356 5349 5342 5335 5328 5323 5316 5308 5300 5293 5286 5280 5275 5269 5264 5258 5253 5249 5245 5241 5237 5234 5231 5228 5225 5222 5220 5218 5216 5215 5213 5212 5211 5211 5210 5210 5209 5208 5208 5207 5207 5207 5206 5206 5206 5206 5206 5205 5205 5204 5204 5203 5203 5202 5201 5200 5199 5198 5197 5196 5196 5195 5194 5194 5193 5193 5192 5191
5466 5459 5451 5443 5437 5430 5423 5416 5408 5401 5397 5394 5389 5383 5377 5372 5366 5360 5353 5346 5340 5332 5325 5319 5314 5308 5300 5292 5285 5279 5274 5269 5264 5258 5253 5248 5244 5240 5237 5233 5230 5227 5225 5222 5220 5218 5215 5214 5212 5211 5210 5209 5208 5207 5206 5206 5205 5205 5205 5204 5204 5204 5203 5203 5202 5202 5201 5201 5200 5200 5199 5198 5197 5196 5195 5194 5193 5193 5192 5191 5191 5190 5189 5189 5188 5187
5461 5452 5444 5436 5429 5423 5417 5411 5404 5397 5390 5386 5382 5377 5371 5366 5361 5356 5350 5343 5337 5330 5322 5315 5309 5304 5299 5292 5284 5278 5273 5268 5263 5258 5253 5248 5244 5240 5236 5233 5230 5227 5224 5222 5219 5217 5215 5213 5211 5209 5208 5207 5206 5205 5204 5203 5203 5203 5202 5202 5201 5201 5201 5200 5200 5199 5198 5198 5197 5196 5196 5195 5194 5193 5192 5191 5190 5189 5188 5188 5187 5186 5185 5185 5184 5183